User: anonymous   Login
Location: Barrio Las Umbrías
(40.4173°N, 4.8685°W)
Time: 05:58:03
(UTC+00:00)
Language:

Terra - Orbit

View from above orbital plane
View from above orbital plane
View from above satellite
View from above satellite

Ground track
Ground track

The orbit data is extracted from the following two-line orbital elements,

1 25994U 99068A   22340.85070810  .00000354  00000-0  85181-4 0  9990
2 25994  98.1201  48.7953 0000956   7.1736 124.5481 14.58930598221611
Epoch (UTC): 06 December 2022 20:25:01
Eccentricity: 0.0000956
inclination: 98.1201°
perigee height: 696 km
apogee height: 697 km
right ascension of ascending node: 48.7953°
argument of perigee: 7.1736°
revolutions per day: 14.58930598
mean anomaly at epoch: 124.5481°
orbit number at epoch: 22161

The dashed part of the orbit path shows where the satellite is in the earth's shadow,  

DLR